FW0683 Weather Reports


time (UTC)temp
C
wind
direction
speed
KPH
gust
KPH
rain 1hr
cm
rain 24hr
cm
rain mn
cm
humidity
%
barometer
mb
20260504081523 4 142 0.0 0.0 0.00 0.03 0.00 76 1013.9
20260504050115 1 59 0.0 0.0 0.00 0.03 0.00 84 1013.6
20260504044556 1 59 0.0 0.0 0.00 0.05 0.00 83 1013.6
20260504043107 1 59 0.0 0.0 0.00 0.05 0.00 83 1013.5
20260504041554 1 59 0.0 0.0 0.00 0.05 0.00 82 1013.4
20260504040058 1 48 0.0 0.0 0.00 0.05 0.00 83 1013.4
20260504034552 1 48 0.0 0.0 0.00 0.05 0.05 81 1013.2
20260504033056 2 49 0.0 0.0 0.00 0.05 0.05 80 1013.2
20260504031558 1 34 0.0 0.0 0.00 0.05 0.05 81 1013.2
20260504030049 1 34 0.0 0.0 0.00 0.05 0.05 80 1013.2
20260504024548 2 34 0.0 0.0 0.00 0.05 0.05 77 1013.1
20260504023045 2 34 0.0 0.0 0.00 0.05 0.05 75 1013.2
20260504021542 2 34 0.0 0.0 0.00 0.05 0.05 72 1013.1
20260504020041 3 33 0.0 0.0 0.00 0.05 0.05 71 1013.1
20260504014553 3 34 0.0 0.0 0.00 0.05 0.05 69 1013.0
20260504013041 3 34 0.0 0.0 0.00 0.05 0.05 67 1013.0
20260504011533 5 34 0.0 0.0 0.00 0.05 0.05 63 1012.9
20260504010032 5 34 0.0 0.0 0.00 0.05 0.05 63 1012.7
20260504004532 6 33 0.0 0.0 0.00 0.05 0.05 59 1012.5
20260504003031 6 281 0.0 0.0 0.00 0.05 0.05 59 1012.3
20260504001535 7 280 0.0 1.6 0.00 0.05 0.05 54 1011.8
20260504000040 8 353 0.0 0.0 0.00 0.05 0.05 50 1011.4
20260503234531 8 292 0.0 0.0 0.00 0.05 0.05 52 1011.2
20260503233029 8 259 0.0 0.0 0.00 0.05 0.05 52 1011.0
20260503231530 9 90 0.0 0.0 0.00 0.05 0.05 48 1010.8
20260503230031 9 250 0.0 6.4 0.00 0.25 0.05 45 1010.6
20260503224535 10 1 0.0 6.4 0.00 0.25 0.05 41 1010.4
20260503223029 10 347 0.0 6.4 0.00 0.25 0.05 43 1010.4
20260503221528 10 241 0.0 1.6 0.00 0.25 0.05 43 1010.3
20260503220028 11 288 0.0 11.3 0.00 0.25 0.05 43 1010.0
20260503214532 11 77 0.0 3.2 0.00 0.25 0.05 41 1009.8
20260503213031 11 109 0.0 9.7 0.00 0.25 0.05 40 1009.8
20260503211525 10 247 0.0 17.7 0.00 0.25 0.05 43 1009.7
20260503210040 11 104 0.0 6.4 0.00 0.25 0.05 46 1009.5
20260503204525 11 33 0.0 14.5 0.00 0.25 0.05 43 1009.4
20260503203026 11 8 0.0 12.9 0.00 0.25 0.05 48 1009.4
20260503201532 12 359 0.0 11.3 0.00 0.25 0.05 44 1009.1
20260503200023 12 34 0.0 20.9 0.00 0.25 0.05 45 1009.2
20260503194521 12 313 0.0 3.2 0.00 0.25 0.05 46 1009.2
20260503193018 11 318 1.6 16.1 0.00 0.25 0.05 47 1009.2
20260503191519 12 278 0.0 4.8 0.00 0.25 0.05 45 1009.2
20260503190017 12 263 0.0 3.2 0.00 0.25 0.05 47 1009.3
20260503184520 11 39 0.0 12.9 0.00 0.25 0.05 48 1009.2
20260503183011 11 326 0.0 19.3 0.00 0.25 0.05 50 1009.4
20260503181510 10 238 0.0 9.7 0.00 0.25 0.05 55 1009.4
20260503180010 10 311 1.6 14.5 0.00 0.25 0.05 54 1009.3
20260503174508 10 10 0.0 4.8 0.00 0.25 0.05 52 1009.3
20260503173007 10 221 0.0 12.9 0.00 0.25 0.05 57 1009.3
20260503171502 9 259 0.0 4.8 0.00 0.25 0.05 64 1009.3